Date,TemperatureHighF,TemperatureAvgF,TemperatureLowF,DewpointHighF,DewpointAvgF,DewpointLowF,HumidityHigh,HumidityAvg,HumidityLow,PressureMaxIn,PressureMinIn,WindSpeedMaxMPH,WindSpeedAvgMPH,GustSpeedMaxMPH,PrecipitationSumIn
2013-1-1,49.2,46.3,42.7,47.8,40.8,30.7,95,82,55,30.13,29.96,16,4,16,0.39
2013-1-2,49.4,46.4,41.7,47.4,41.9,34.3,96,85,72,30.17,29.91,13,2,13,0.09
2013-1-3,44.3,40.0,34.2,36.7,33.7,27.1,90,78,73,30.30,30.13,9,1,9,0.00
2013-1-4,51.9,38.8,29.7,29.1,24.5,19.4,79,59,35,30.37,30.24,17,4,17,0.00
2013-1-5,50.9,39.2,27.6,34.7,25.4,20.6,78,59,37,30.42,30.24,10,1,10,0.00
2013-1-6,55.2,44.5,38.0,40.9,36.1,29.3,89,73,55,30.25,30.05,15,2,15,0.02
2013-1-7,51.6,41.0,32.3,32.3,29.4,26.5,83,64,45,30.44,30.22,12,2,12,0.00
2013-1-8,52.6,40.4,28.7,42.3,33.8,25.1,90,78,62,30.49,30.39,5,0,5,0.00
2013-1-9,62.4,52.0,42.1,54.1,46.7,38.3,92,83,70,30.46,30.38,13,2,13,0.00
2013-1-10,65.8,55.3,48.2,51.3,45.3,37.8,95,71,48,30.51,30.37,12,2,12,0.00
2013-1-11,52.8,46.7,44.8,46.2,44.8,39.2,96,93,61,30.37,30.18,13,2,13,0.16
2013-1-12,67.4,56.4,47.3,64.7,55.1,46.2,97,95,88,30.18,30.08,6,1,6,0.01
2013-1-13,70.3,62.1,56.3,62.8,58.9,54.8,98,90,74,30.12,30.02,21,4,21,0.00
2013-1-14,65.1,63.1,61.1,63.5,61.4,58.9,96,94,89,30.10,30.03,14,4,14,0.28
2013-1-15,63.1,46.5,40.9,61.9,45.2,39.8,96,95,92,30.19,30.08,22,7,22,0.40
2013-1-16,49.7,45.2,41.0,48.4,44.0,39.9,96,96,94,30.09,29.98,9,1,9,0.41
2013-1-17,50.5,44.4,33.1,49.4,43.1,31.8,99,95,93,30.20,29.85,32,9,32,2.61
2013-1-18,49.6,37.7,29.3,35.0,29.2,25.8,95,74,43,30.53,30.20,10,1,10,0.15
2013-1-19,54.7,39.9,28.0,34.6,28.7,23.4,90,67,38,30.52,30.18,14,3,14,0.00
2013-1-20,62.7,47.5,32.8,39.7,31.3,27.3,81,55,32,30.18,30.03,18,6,18,0.00
2013-1-21,59.0,44.6,32.0,35.7,27.7,17.9,80,54,34,30.09,29.92,26,8,26,0.00
2013-1-22,39.8,34.0,28.4,18.0,8.6,2.1,50,35,21,30.28,30.02,27,8,27,0.00
2013-1-23,46.1,33.9,22.0,26.8,15.8,2.5,70,48,33,30.38,30.07,16,2,16,0.00
2013-1-24,45.6,35.9,24.4,29.7,17.9,7.0,76,50,29,30.52,29.99,23,7,23,0.00
2013-1-25,27.0,24.4,19.5,25.0,16.2,7.0,92,72,48,30.53,30.15,12,2,12,0.00
2013-1-26,44.7,31.9,25.3,36.7,29.0,23.6,100,90,63,30.40,30.14,6,0,6,0.09
2013-1-27,42.8,34.3,25.3,31.7,27.3,23.0,93,77,58,30.60,30.40,12,1,12,0.01
2013-1-28,53.2,42.5,36.5,46.4,37.0,30.4,92,81,71,30.51,30.26,16,3,16,0.01
2013-1-29,73.2,56.4,40.1,59.9,51.0,38.4,96,83,61,30.26,30.02,22,5,22,0.00
2013-1-30,71.1,64.6,52.4,62.3,60.2,49.4,94,86,69,30.03,29.42,35,10,35,1.46
2013-1-31,52.9,41.9,35.6,50.0,27.9,21.6,91,58,42,30.02,29.47,28,12,28,0.05
2013-2-1,40.4,34.4,25.3,29.2,15.2,7.7,65,46,30,30.39,29.90,32,10,32,0.00
2013-2-2,42.8,33.0,21.9,34.9,19.5,9.2,83,59,37,30.42,30.06,27,5,27,0.00
2013-2-3,49.8,41.0,33.1,34.4,29.1,22.3,90,64,43,30.06,29.88,30,9,30,0.00
2013-2-4,50.9,39.3,29.4,29.5,24.8,20.3,74,57,40,30.16,30.00,16,3,16,0.00
2013-2-5,62.7,47.8,37.0,40.4,33.0,29.1,77,58,41,30.01,29.90,14,3,14,0.00
2013-2-6,63.8,50.1,38.8,35.4,30.0,24.3,75,49,26,30.24,29.98,17,2,17,0.00
2013-2-7,42.3,39.6,37.7,38.1,33.1,25.8,94,78,52,30.31,30.04,18,6,18,0.70
2013-2-8,57.9,45.7,37.7,48.2,37.7,27.6,94,76,45,30.12,29.89,22,6,22,0.02
2013-2-9,59.0,44.2,32.5,27.9,24.7,21.3,75,49,25,30.35,30.12,13,2,13,0.00
2013-2-10,57.1,43.4,32.8,40.5,29.2,23.8,92,61,31,30.46,30.19,14,2,14,0.13
2013-2-11,57.6,49.8,42.3,55.7,48.2,40.4,96,94,92,30.20,29.97,23,4,23,0.10
2013-2-12,59.0,51.0,42.1,49.0,36.1,28.3,94,59,32,30.11,29.91,12,2,12,0.00
2013-2-13,48.5,43.9,38.2,45.1,41.1,33.1,95,90,68,29.95,29.66,18,3,18,0.24
2013-2-14,52.7,42.1,32.5,36.1,32.8,28.3,88,71,50,30.08,29.87,20,2,20,0.00
2013-2-15,61.4,46.7,31.8,39.4,34.6,28.3,92,66,37,30.11,29.93,20,3,20,0.00
2013-2-16,45.4,35.9,25.4,35.4,28.5,21.3,93,75,63,30.02,29.84,17,2,17,0.00
2013-2-17,40.6,31.5,24.5,22.2,13.8,8.7,87,49,33,30.29,30.02,28,9,28,0.01
2013-2-18,54.1,39.5,23.6,30.7,22.0,12.3,69,50,37,30.41,30.21,16,2,16,0.00
2013-2-19,50.2,42.4,36.5,44.2,33.1,17.8,93,71,36,30.23,29.89,26,6,26,0.14
2013-2-20,54.4,42.8,29.9,23.1,16.4,11.5,54,35,20,30.14,30.02,23,4,23,0.00
2013-2-21,58.6,42.3,25.3,37.0,21.2,11.7,83,45,24,30.30,30.11,13,1,13,0.06
2013-2-22,43.4,37.2,35.8,37.0,35.4,34.2,100,93,78,30.32,30.14,10,2,10,0.40
2013-2-23,45.7,39.8,35.4,42.9,38.2,34.1,95,94,90,30.17,29.86,12,2,12,0.17
2013-2-24,63.4,50.3,38.7,43.3,35.2,26.5,96,62,29,30.03,29.86,20,4,20,0.00
2013-2-25,44.6,39.8,37.3,29.9,27.1,25.2,67,60,50,30.20,30.02,16,4,16,0.00
2013-2-26,39.5,36.1,32.6,38.2,33.4,25.1,95,90,60,30.12,29.62,17,4,17,1.29
2013-2-27,57.2,45.9,38.2,43.1,38.7,35.1,100,78,53,29.83,29.67,18,4,18,0.01
2013-2-28,47.9,42.0,34.7,35.1,29.0,25.8,71,60,47,29.91,29.73,27,7,27,0.00
2013-3-1,45.7,39.4,31.6,31.9,29.1,26.0,83,67,54,29.95,29.89,15,4,15,0.00
2013-3-2,44.9,38.1,32.4,35.4,29.7,21.8,86,72,49,29.96,29.84,20,3,20,0.00
2013-3-3,44.7,34.0,25.2,24.2,19.5,16.9,73,56,40,30.04,29.92,26,6,26,0.00
2013-3-4,55.0,39.8,25.6,24.6,19.4,15.5,66,46,27,30.16,30.02,18,3,18,0.00
2013-3-5,47.0,43.4,40.2,43.6,35.0,23.5,94,75,42,30.08,29.62,17,2,17,0.46
2013-3-6,45.6,38.9,32.4,40.0,27.7,22.3,95,65,49,30.14,29.63,33,11,33,0.01
2013-3-7,54.2,39.5,27.9,32.5,27.5,23.6,85,64,42,30.30,30.13,20,4,20,0.00
2013-3-8,56.5,42.0,28.7,28.1,25.7,21.9,77,55,31,30.35,30.23,20,4,20,0.00
2013-3-9,64.0,47.2,31.1,37.3,30.3,24.0,80,54,35,30.38,30.25,12,1,12,0.00
2013-3-10,67.7,53.0,39.3,41.2,36.9,31.5,84,57,34,30.30,30.17,16,2,16,0.00
2013-3-11,68.6,55.7,43.0,54.3,43.5,29.9,90,64,51,30.20,29.85,20,4,20,0.04
2013-3-12,64.8,60.0,54.4,56.1,47.9,38.0,94,69,38,29.85,29.73,20,8,20,0.37
2013-3-13,64.1,64.1,64.1,38.0,38.0,38.0,38,38,38,29.84,29.84,12,12,12,0.00
2013-3-28,55.7,49.9,41.6,28.5,24.4,22.0,50,38,28,30.32,30.22,22,7,22,0.00
2013-3-29,60.8,47.2,32.5,37.6,29.4,23.0,77,52,31,30.37,30.20,20,5,20,0.00
2013-3-30,64.1,53.6,42.9,44.5,39.8,34.1,92,62,41,30.24,30.05,14,4,14,0.00
2013-3-31,68.3,55.6,49.9,57.2,51.3,44.3,95,86,64,30.05,29.79,18,4,18,0.46
2013-4-1,68.8,58.7,49.8,53.2,45.9,37.1,95,66,39,29.96,29.83,29,8,29,0.01
2013-4-2,59.9,53.1,39.0,38.2,30.7,24.0,80,45,26,30.16,29.96,18,7,18,0.00
2013-4-3,59.8,53.7,39.9,32.9,26.1,18.8,56,35,28,30.29,30.07,18,6,18,0.00
2013-4-4,47.1,40.3,35.4,36.0,30.2,20.1,94,71,37,30.31,30.01,25,8,25,0.81
2013-4-5,65.8,50.4,36.9,48.6,40.3,34.9,95,72,33,30.07,29.93,16,4,16,0.01
2013-4-6,67.3,55.6,41.3,43.5,38.5,35.6,82,55,34,30.24,30.06,13,3,13,0.00
2013-4-7,71.0,58.7,44.5,52.2,45.6,38.9,84,63,45,30.24,30.09,23,5,23,0.00
2013-4-8,76.9,64.9,52.9,60.3,53.3,48.3,91,68,46,30.15,30.03,24,6,24,0.00
2013-4-9,81.7,69.5,56.9,62.3,56.3,51.3,87,64,46,30.18,30.06,18,5,18,0.00
2013-4-10,84.7,72.0,59.8,65.1,59.0,55.3,87,65,45,30.08,29.92,21,6,21,0.00
2013-4-11,80.0,70.0,61.9,66.5,61.4,56.2,94,75,55,29.95,29.72,28,6,28,0.11
2013-4-12,80.3,69.8,59.4,66.4,57.2,39.3,95,69,35,29.80,29.60,36,12,36,1.07
2013-4-13,76.1,62.4,46.7,50.5,41.3,35.3,80,48,23,30.02,29.80,17,4,17,0.00
2013-4-14,76.7,62.7,44.6,53.8,44.4,35.7,81,53,35,30.09,29.97,13,3,13,0.00
2013-4-15,63.2,57.6,55.0,58.0,55.4,48.3,96,93,59,30.21,29.98,15,4,15,0.20
2013-4-16,79.3,65.9,56.4,64.2,58.8,54.9,96,80,53,30.30,30.16,13,2,13,0.00
2013-4-17,77.6,68.7,59.0,64.4,60.7,56.1,92,76,59,30.23,30.09,12,2,12,0.00
2013-4-18,79.3,69.7,62.0,63.5,60.9,58.8,90,75,52,30.15,29.95,20,3,20,0.00
2013-4-19,75.1,66.3,54.8,66.4,61.6,41.1,92,85,61,29.95,29.70,32,10,32,0.33
2013-4-20,65.2,53.6,42.2,41.5,35.4,31.2,71,52,31,30.28,29.89,16,5,16,0.00
2013-4-21,61.1,50.9,39.0,43.2,38.1,32.0,82,63,45,30.47,30.28,20,5,20,0.00
2013-4-22,62.2,51.5,41.1,41.0,35.8,31.9,82,57,34,30.45,30.25,20,6,20,0.00
2013-4-23,69.5,56.3,44.1,55.2,45.4,32.3,80,67,51,30.29,30.11,14,2,14,0.00
2013-4-24,71.7,61.8,51.5,59.6,54.7,49.1,93,78,60,30.13,29.97,27,8,27,0.00
2013-4-25,71.0,59.5,50.3,57.8,42.4,34.0,91,56,29,30.29,30.03,18,4,18,0.00
2013-4-26,70.0,58.6,42.8,47.1,38.9,33.3,76,49,32,30.44,30.29,17,2,17,0.00
2013-4-27,62.7,57.2,53.9,56.5,51.9,46.1,95,83,64,30.37,30.25,6,0,6,0.07
2013-4-28,55.4,54.4,53.4,54.3,53.2,51.9,96,96,94,30.25,30.03,12,2,12,2.10
2013-4-29,72.8,60.7,54.8,63.0,57.3,53.7,100,89,67,30.07,29.94,12,1,12,0.17
2013-4-30,71.5,62.1,58.0,62.4,58.2,55.3,96,88,68,30.17,29.98,13,4,13,0.00
2013-5-1,65.5,59.0,54.1,58.3,55.3,52.4,95,88,73,30.30,30.17,20,6,20,0.00
2013-5-2,61.2,57.5,54.0,56.4,54.7,52.6,95,90,83,30.32,30.24,15,6,15,0.13
2013-5-3,64.1,58.8,53.9,55.1,52.3,45.3,95,80,63,30.25,30.12,18,7,18,0.00
2013-5-4,61.4,54.2,49.2,51.3,47.0,43.1,90,77,64,30.14,30.01,21,10,21,0.00
2013-5-5,57.3,52.2,48.7,55.9,49.4,45.9,95,90,83,30.07,29.87,24,11,24,0.86
2013-5-6,69.3,60.8,53.3,61.9,54.9,48.3,96,82,49,29.89,29.81,20,4,20,1.86
2013-5-7,70.7,56.9,47.8,55.4,50.5,45.9,94,81,48,29.95,29.84,17,2,17,0.06
2013-5-8,72.6,61.1,50.3,60.6,55.3,48.6,96,83,61,30.01,29.91,15,3,15,0.04
2013-5-9,80.5,66.7,52.1,62.8,56.6,50.4,96,73,47,30.08,30.00,13,2,13,0.00
2013-5-10,80.1,69.3,55.0,66.1,60.2,53.0,95,74,54,30.06,29.93,22,4,22,0.00
2013-5-11,78.1,69.1,61.5,65.6,61.8,58.6,95,78,59,29.94,29.77,20,5,20,0.40
2013-5-12,69.9,61.1,52.7,60.4,48.4,35.6,95,67,36,30.04,29.83,22,4,22,0.00
2013-5-13,68.3,55.5,40.5,42.7,37.3,32.3,91,53,27,30.18,30.04,20,4,20,0.00
2013-5-14,71.6,58.2,40.5,50.3,43.1,35.5,92,59,40,30.26,30.07,22,4,22,0.00
2013-5-15,87.3,71.9,55.8,68.0,58.9,48.1,86,65,48,30.07,29.91,18,6,18,0.00
2013-5-16,82.3,73.0,63.9,65.8,60.5,53.8,83,66,44,30.00,29.91,12,3,12,0.00
2013-5-17,86.2,73.2,60.0,67.6,62.8,57.8,94,72,47,30.07,29.98,12,1,12,0.00
2013-5-18,70.5,66.8,61.5,66.7,63.8,59.4,95,90,78,30.13,30.04,6,1,6,0.27
2013-5-19,78.2,69.7,65.4,70.5,66.4,63.6,96,90,73,30.11,30.01,12,2,12,0.02
2013-5-20,81.4,71.8,66.8,71.5,67.5,65.1,96,87,68,30.11,30.00,9,1,9,0.01
2013-5-21,87.5,74.8,64.6,74.4,68.0,62.4,95,81,54,30.03,29.91,17,1,17,0.00
2013-5-22,84.8,72.1,63.1,71.9,66.1,61.1,95,83,60,29.99,29.86,20,3,20,0.07
2013-5-23,79.8,69.0,63.1,70.8,64.5,59.5,96,86,68,29.97,29.80,13,2,13,0.32
2013-5-24,70.6,64.3,53.3,60.6,49.3,39.1,87,61,33,30.20,29.86,28,6,28,0.00
2013-5-25,76.0,61.1,45.1,54.6,44.7,38.9,83,57,38,30.31,30.15,15,2,15,0.00
2013-5-26,75.8,63.7,53.2,56.9,50.1,41.3,88,63,44,30.29,30.16,14,1,14,0.01
2013-5-27,81.7,68.0,51.6,62.8,56.6,49.1,95,69,48,30.27,30.12,16,2,16,0.00
2013-5-28,83.5,73.3,64.0,67.9,63.2,58.8,90,72,53,30.21,30.12,17,4,17,0.00
2013-5-29,85.0,74.2,62.6,68.4,63.3,59.0,89,70,47,30.22,30.13,16,3,16,0.00
2013-5-30,84.8,72.7,61.6,68.9,63.1,59.3,94,73,49,30.26,30.15,10,1,10,0.00
2013-5-31,86.0,75.1,65.2,68.7,65.3,60.6,92,73,50,30.21,30.09,15,2,15,0.00
2013-6-1,84.7,76.6,68.9,69.4,66.7,64.3,91,73,52,30.10,29.99,18,4,18,0.00
2013-6-2,80.0,73.1,67.1,70.9,67.1,64.8,95,82,70,30.02,29.89,17,3,17,0.37
2013-6-3,83.5,72.7,66.0,71.6,67.5,64.5,96,85,63,29.95,29.83,10,1,10,0.01
2013-6-4,78.7,71.4,64.8,68.8,65.8,63.0,96,83,69,30.07,29.93,15,2,15,0.11
2013-6-5,75.1,68.8,63.7,68.9,65.7,61.9,95,90,80,30.10,29.98,10,1,10,0.02
2013-6-6,77.2,71.7,68.2,72.4,69.3,66.2,96,92,81,29.99,29.78,13,2,13,0.62
2013-6-7,82.2,71.5,66.9,73.1,67.7,65.4,97,89,68,29.83,29.64,16,3,16,0.43
2013-6-8,84.0,73.6,64.5,71.4,66.9,62.7,96,81,58,30.07,29.81,13,1,13,0.01
2013-6-9,85.8,74.2,67.6,72.9,68.5,65.7,95,84,61,30.13,30.02,18,1,18,0.08
2013-6-10,77.8,72.6,68.0,72.6,69.0,65.8,96,89,73,30.08,29.88,20,4,20,0.55
2013-6-11,86.8,76.0,67.9,69.7,66.5,63.5,96,75,50,29.98,29.91,15,3,15,0.01
2013-6-12,91.1,78.2,63.9,77.8,70.0,61.4,94,77,59,29.99,29.86,16,3,16,0.00
2013-6-13,91.8,78.5,70.3,73.5,70.2,63.6,95,77,48,29.86,29.62,26,4,26,0.00
2013-6-14,81.8,73.0,62.4,64.4,58.0,54.6,82,61,41,30.02,29.73,18,3,18,0.00
2013-6-15,85.2,72.2,57.6,66.6,60.9,54.8,92,70,49,30.13,30.02,17,1,17,0.00
2013-6-16,86.6,76.1,66.3,70.5,65.3,60.7,87,70,51,30.11,29.99,16,4,16,0.00
2013-6-17,86.8,75.1,69.7,72.3,68.7,66.2,94,81,60,30.02,29.95,20,2,20,0.38
2013-6-18,71.5,70.4,69.5,69.4,68.4,67.7,96,93,92,29.89,29.82,4,0,4,0.67
2013-6-19,81.5,73.2,63.5,69.9,66.1,61.9,96,80,59,30.10,29.84,10,1,10,0.01
2013-6-20,81.7,71.8,63.9,69.6,65.9,62.3,96,83,62,30.23,30.10,12,1,12,0.00
2013-6-21,82.8,72.3,61.8,68.1,63.9,60.4,96,77,56,30.27,30.17,12,2,12,0.00
2013-6-22,84.0,72.4,60.4,70.6,64.7,58.4,94,78,58,30.23,30.10,12,1,12,0.00
2013-6-23,87.3,76.5,65.4,73.1,68.7,63.6,96,78,57,30.19,30.09,10,1,10,0.00
2013-6-24,89.0,74.7,68.0,75.5,69.8,66.3,96,86,57,30.19,30.07,16,2,16,0.07
2013-6-25,89.7,77.4,70.1,75.5,70.9,66.9,96,82,52,30.12,29.04,13,3,13,0.12
2013-6-26,90.3,74.2,68.5,75.4,69.2,64.0,96,86,57,30.02,29.89,37,3,37,0.03
2013-6-27,89.4,77.4,68.3,75.9,71.4,66.7,96,83,60,29.93,29.71,16,5,16,0.01
2013-6-28,93.0,79.1,68.4,75.4,70.6,66.5,95,77,47,29.75,29.57,25,4,25,0.61
2013-6-29,87.5,73.9,67.8,72.5,69.0,64.8,96,86,57,29.69,29.59,16,2,16,0.37
2013-6-30,85.5,73.9,66.8,73.4,69.3,65.0,96,86,58,29.83,29.67,9,1,9,0.10
2013-7-1,83.0,73.7,65.9,72.7,68.8,64.4,96,85,67,29.95,29.81,12,2,12,0.02
2013-7-2,79.8,73.1,69.6,72.8,70.3,67.8,96,91,76,30.13,29.94,14,3,14,0.99
2013-7-3,79.8,74.0,70.6,74.5,71.6,69.4,96,92,80,30.19,30.10,12,2,12,0.91
2013-7-4,85.2,74.7,68.7,76.0,70.9,67.1,97,89,66,30.23,30.12,18,2,18,2.11
2013-7-5,81.9,74.0,71.0,75.4,71.6,68.5,96,92,78,30.24,30.17,13,2,13,0.38
2013-7-6,84.8,76.2,70.8,75.9,71.8,69.6,96,87,67,30.23,30.09,13,2,13,0.13
2013-7-7,85.6,76.8,72.4,76.5,72.9,70.6,95,88,69,30.16,30.04,16,3,16,0.20
2013-7-8,87.9,77.5,70.7,76.0,71.9,68.4,96,84,59,30.17,30.08,9,1,9,0.01
2013-7-9,91.2,79.5,70.3,77.5,72.2,67.3,96,80,46,30.14,30.02,14,2,14,0.00
2013-7-10,86.8,77.4,70.4,76.9,72.4,68.9,96,85,68,30.10,29.92,14,3,14,0.11
2013-7-11,81.0,74.3,69.7,75.5,71.4,67.5,96,91,81,29.95,29.85,13,2,13,0.01
2013-7-12,80.2,73.5,68.7,72.1,69.2,65.9,96,87,73,30.00,29.86,13,3,13,0.00
2013-7-13,78.4,72.1,67.9,71.9,68.7,65.4,95,89,78,30.11,30.01,16,4,16,0.02
2013-7-14,85.0,76.1,70.7,75.1,71.6,68.3,96,87,67,30.27,30.09,15,3,15,0.27
2013-7-15,87.1,76.7,68.4,73.9,70.4,67.2,97,82,59,30.32,30.23,10,1,10,0.00
2013-7-16,93.9,79.7,68.6,75.6,70.6,67.1,96,76,45,30.29,30.18,12,1,12,0.00
2013-7-17,90.8,76.9,68.9,78.4,71.7,65.5,96,85,60,30.23,30.12,30,2,30,0.76
2013-7-18,91.8,78.4,69.0,79.1,72.6,67.8,96,84,57,30.16,30.04,10,1,10,0.00
2013-7-19,90.1,79.6,71.1,76.7,73.3,69.3,96,82,61,30.09,29.96,15,3,15,0.00
2013-7-20,85.3,76.1,71.3,77.1,72.5,69.7,95,89,67,30.01,29.91,12,3,12,0.00
2013-7-21,88.4,75.3,69.2,77.7,71.8,67.7,97,89,65,30.00,29.91,9,2,9,0.01
2013-7-22,87.1,76.9,70.0,76.0,72.0,68.8,96,85,66,29.98,29.81,15,3,15,0.01
2013-7-23,89.1,79.0,70.4,73.0,70.6,67.8,96,77,51,29.84,29.74,16,4,16,0.00
2013-7-24,91.6,78.4,68.7,76.9,71.0,67.0,96,80,52,29.84,29.73,12,1,12,0.07
2013-7-25,82.3,74.4,66.7,71.6,68.1,64.2,95,82,64,30.01,29.82,14,3,14,0.00
2013-7-26,76.5,70.8,68.0,69.4,68.0,66.5,95,91,78,30.03,30.00,12,0,1,0.00
2013-7-27,76.2,71.1,68.1,71.3,68.5,66.7,96,92,82,30.02,29.91,18,2,18,2.63
2013-7-28,86.3,75.5,69.2,74.3,70.1,67.7,96,84,64,29.99,29.91,12,2,12,0.01
2013-7-29,86.8,74.7,65.3,70.9,66.9,63.2,96,79,51,30.15,29.98,9,1,9,0.01
2013-7-30,83.3,73.4,64.0,72.3,65.9,59.9,92,78,58,30.22,30.12,10,1,10,0.00
2013-7-31,77.5,72.1,69.5,71.9,69.8,68.0,96,92,80,30.15,29.98,12,1,12,0.96
2013-8-1,85.5,76.2,70.6,73.6,71.1,68.4,96,85,61,29.98,29.86,20,2,20,0.32
2013-8-2,86.3,76.6,67.5,73.7,69.3,66.0,96,80,56,30.02,29.91,7,1,7,0.01
2013-8-3,87.0,78.0,70.3,75.8,71.3,68.0,96,81,57,30.00,29.91,14,3,14,0.00
2013-8-4,85.8,76.8,69.4,72.1,67.9,63.6,93,75,50,30.02,29.91,16,3,16,0.00
2013-8-5,83.7,74.4,67.3,71.8,66.7,61.9,90,77,62,30.07,29.96,12,2,12,0.00
2013-8-6,75.6,71.7,66.4,71.1,68.4,63.8,94,90,80,30.05,29.96,20,2,20,0.16
2013-8-7,82.9,75.0,70.3,73.3,70.5,68.5,95,87,66,30.08,30.00,15,1,15,0.00
2013-8-8,87.0,77.4,71.5,76.8,72.4,69.1,95,85,68,30.05,29.97,16,2,16,0.00
2013-8-9,88.9,77.5,72.6,79.3,73.3,70.3,95,88,68,30.04,29.97,24,4,24,0.44
2013-8-10,90.9,76.2,71.3,78.8,72.9,69.2,97,90,63,30.10,30.01,20,4,20,1.21
2013-8-11,88.3,77.6,69.6,77.7,72.8,68.4,97,86,63,30.11,30.01,12,2,12,0.01
2013-8-12,90.5,77.3,70.3,77.1,71.9,68.0,96,85,58,30.04,29.92,27,2,27,0.02
2013-8-13,86.8,75.3,69.3,76.5,71.5,67.9,97,89,65,29.95,29.79,20,3,20,0.02
2013-8-14,77.6,71.2,64.0,69.7,64.6,61.4,93,80,60,30.07,29.85,13,2,13,0.00
2013-8-15,72.5,65.3,58.0,62.5,59.0,54.8,93,81,65,30.16,30.06,13,2,13,0.00
2013-8-16,71.6,63.7,58.2,62.5,59.5,56.4,95,87,66,30.18,30.09,12,2,12,0.00
2013-8-17,65.3,62.5,59.1,63.1,60.7,57.2,96,94,87,30.20,30.14,14,2,14,0.38
2013-8-18,78.0,69.9,63.4,70.9,66.8,62.2,97,90,75,30.23,30.13,6,0,6,0.45
2013-8-19,76.1,70.7,67.6,70.9,68.3,65.9,97,92,78,30.18,30.08,5,0,5,0.50
2013-8-20,80.4,73.0,65.2,72.4,69.2,64.0,97,88,73,30.19,30.11,5,0,5,0.00
2013-8-21,83.6,73.7,68.9,75.3,70.9,67.7,97,91,71,30.23,30.11,13,1,13,0.10
2013-8-22,88.5,77.8,70.0,74.6,71.4,68.4,97,82,56,30.14,29.99,12,2,12,0.00
2013-8-23,86.7,73.1,66.9,74.0,69.0,65.3,96,88,57,30.08,29.96,21,2,21,0.36
2013-8-24,79.2,70.1,62.5,66.2,62.2,59.3,93,77,54,30.30,30.08,14,4,14,0.00
2013-8-25,78.9,68.0,57.6,65.7,61.1,56.1,96,80,53,30.40,30.28,13,1,13,0.00
2013-8-26,84.5,70.2,57.1,69.2,62.9,55.4,96,79,55,30.33,30.11,10,0,10,0.00
2013-8-27,88.8,74.6,63.5,75.2,68.4,61.7,95,82,58,30.14,29.98,12,1,12,0.06
2013-8-28,87.8,77.9,68.8,76.0,71.6,66.8,95,82,63,30.01,29.90,14,2,14,0.01
2013-8-29,89.5,80.0,72.8,77.1,72.9,69.7,94,80,59,29.98,29.87,12,2,12,0.08
2013-8-30,86.3,76.2,70.2,73.9,70.1,68.2,96,82,61,30.04,29.92,9,0,9,0.01
2013-8-31,88.2,74.7,68.7,76.9,70.4,66.3,95,87,65,29.95,29.85,12,2,12,0.02
2013-9-1,87.6,73.1,67.8,77.5,69.7,66.3,96,90,66,29.90,29.77,21,4,21,0.80
2013-9-2,87.2,75.6,65.9,76.8,70.9,64.7,97,87,64,29.90,29.80,9,0,9,0.01
2013-9-3,87.5,76.7,68.0,72.4,68.4,65.6,96,77,50,29.96,29.80,14,2,14,0.00
2013-9-4,86.0,73.1,62.2,71.6,65.3,60.6,95,78,55,30.09,29.96,12,1,12,0.00
2013-9-5,87.5,73.8,63.9,69.9,65.8,62.4,96,78,45,30.11,30.04,7,0,7,0.00
2013-9-6,81.3,71.0,62.9,67.3,63.4,59.1,93,78,57,30.20,30.07,12,1,12,0.00
2013-9-7,81.8,70.1,60.6,69.2,64.4,59.2,96,83,62,30.14,29.98,14,2,14,0.00
2013-9-8,87.0,74.5,64.2,71.8,66.9,62.5,96,79,52,29.99,29.92,9,0,9,0.00
2013-9-9,87.2,75.2,66.0,73.6,68.4,64.5,96,81,55,30.13,29.99,9,1,9,0.00
2013-9-10,89.0,76.2,65.5,74.2,69.0,64.0,96,80,54,30.23,30.12,7,0,7,0.00
2013-9-11,88.3,76.2,66.7,75.2,70.1,64.7,96,82,58,30.20,30.06,12,1,12,0.00
2013-9-12,88.3,75.6,68.0,75.4,69.8,65.9,95,83,56,30.06,29.83,17,1,17,0.00
2013-9-13,83.7,73.1,62.2,69.5,61.8,52.8,94,70,44,29.91,29.78,13,2,13,0.00
2013-9-14,75.5,63.5,53.2,60.6,54.6,49.8,90,74,54,30.13,29.91,14,2,14,0.00
2013-9-15,78.9,67.2,54.9,66.9,60.7,52.1,95,81,62,30.23,30.12,6,1,6,0.00
2013-9-16,84.3,71.0,59.1,69.1,63.3,57.7,96,79,52,30.17,30.05,12,1,12,0.00
2013-9-17,71.7,66.0,59.3,59.8,57.7,55.8,89,75,60,30.31,30.17,16,3,16,0.00
2013-9-18,72.4,64.2,56.7,61.9,56.7,53.3,90,77,61,30.32,30.17,9,1,9,0.00
2013-9-19,78.2,66.8,60.6,67.2,61.4,57.4,94,83,65,30.20,30.08,9,0,9,0.00
2013-9-20,86.3,72.0,63.0,70.9,65.3,60.9,95,81,52,30.09,29.91,12,1,12,0.00
2013-9-21,71.7,68.3,63.5,69.9,66.6,62.0,96,94,90,29.92,29.70,12,2,12,0.90
2013-9-22,76.0,65.4,55.9,62.5,58.6,54.8,96,80,54,29.92,29.72,14,2,14,0.01
2013-9-23,73.5,63.1,54.5,61.4,56.3,52.0,93,79,59,30.08,29.92,10,1,10,0.00
2013-9-24,77.5,66.4,58.3,63.6,59.7,56.5,95,80,57,30.09,29.93,7,0,7,0.00
2013-9-25,69.0,62.7,57.8,64.0,60.1,55.8,96,91,78,29.94,29.87,7,0,7,0.13
2013-9-26,73.1,63.8,56.0,61.1,57.3,54.6,96,81,53,30.05,29.89,17,2,17,0.00
2013-9-27,73.8,62.4,53.1,60.2,55.7,51.4,96,80,57,30.20,30.05,15,2,15,0.00
2013-9-28,70.3,60.2,52.6,58.3,54.3,51.1,96,82,61,30.27,30.18,14,2,14,0.00
2013-9-29,70.5,60.9,52.8,61.6,55.8,50.8,94,84,64,30.20,30.05,7,1,7,0.00
2013-9-30,77.8,64.5,52.4,61.8,56.4,50.9,96,77,50,30.11,30.00,6,0,6,0.00
2013-10-1,81.6,67.7,54.0,65.1,59.0,52.0,96,75,51,30.14,30.03,12,1,12,0.00
2013-10-2,84.3,69.2,58.2,65.0,60.9,56.6,96,77,48,30.16,30.06,10,0,10,0.00
2013-10-3,83.2,70.6,60.2,67.3,62.2,58.8,96,77,50,30.13,30.05,15,2,15,0.00
2013-10-4,85.7,71.6,59.3,69.3,63.3,57.6,96,77,51,30.14,30.06,7,0,7,0.00
2013-10-5,87.1,72.9,61.5,70.1,65.1,59.8,96,78,52,30.13,30.02,12,1,12,0.00
2013-10-6,82.8,71.3,60.9,68.3,64.1,59.5,96,80,56,30.04,29.88,14,2,14,0.00
2013-10-7,74.0,67.9,57.4,69.6,63.7,53.3,96,87,67,30.01,29.79,20,3,20,1.48
2013-10-8,68.3,59.7,53.3,53.3,49.6,47.0,85,70,54,30.23,30.00,20,5,20,0.00
2013-10-9,70.2,57.9,47.3,52.1,48.3,44.2,90,72,48,30.25,30.14,17,4,17,0.00
2013-10-10,72.5,60.3,48.1,62.2,54.3,45.8,93,81,69,30.15,29.98,14,2,14,0.00
2013-10-11,80.1,68.0,58.9,63.2,58.7,54.2,86,73,51,30.00,29.91,12,1,12,0.00
2013-10-12,72.3,65.3,58.2,63.9,60.4,55.8,95,85,68,30.09,29.96,9,1,9,0.00
2013-10-13,71.2,65.4,61.3,63.5,61.6,59.8,95,88,74,30.22,30.09,13,3,13,0.00
2013-10-14,69.4,62.9,57.3,62.4,59.4,55.6,95,88,77,30.25,30.16,13,4,13,0.02
2013-10-15,73.3,62.5,56.9,58.5,56.0,53.2,95,80,52,30.22,30.06,12,2,12,0.00
2013-10-16,72.6,62.3,51.9,61.6,57.0,49.9,96,84,65,30.09,29.96,12,1,12,0.00
2013-10-17,65.7,63.2,60.6,64.0,60.7,58.1,95,92,87,29.97,29.84,14,2,14,0.07
2013-10-18,69.7,59.9,51.9,61.4,54.8,50.2,95,84,60,30.04,29.89,7,1,7,0.01
2013-10-19,63.1,57.3,51.5,60.3,55.4,49.4,96,93,86,29.97,29.84,12,1,12,0.02
2013-10-20,65.1,52.8,43.8,50.9,44.5,41.1,95,76,44,30.12,29.94,7,1,7,0.01
2013-10-21,68.2,53.5,40.9,54.6,47.6,39.1,96,82,57,30.17,30.01,15,2,15,0.00
2013-10-22,67.7,59.8,55.0,57.2,54.7,52.3,95,84,65,30.02,29.79,9,1,9,0.00
2013-10-23,63.6,54.4,44.0,56.8,43.6,31.5,95,70,40,30.04,29.72,30,6,30,0.00
2013-10-24,58.9,46.1,33.1,41.8,35.3,29.5,89,67,47,30.19,30.03,16,2,16,0.00
2013-10-25,52.2,43.2,34.6,39.2,33.0,28.8,92,69,44,30.41,30.19,15,3,15,0.00
2013-10-26,56.9,43.0,29.5,38.1,32.6,26.6,92,69,43,30.40,30.09,18,4,18,0.00
2013-10-27,68.8,54.9,41.5,49.9,44.3,37.6,89,69,49,30.15,30.05,17,2,17,0.00
2013-10-28,66.5,55.5,47.8,56.3,51.1,45.3,94,86,68,30.27,30.11,4,0,4,0.00
2013-10-29,72.3,59.7,48.2,57.4,52.9,46.6,96,80,55,30.35,30.24,12,1,12,0.00
2013-10-30,77.7,64.2,53.7,61.0,56.0,51.1,93,76,52,30.28,30.14,17,2,17,0.00
2013-10-31,68.0,63.6,57.7,63.4,57.6,54.3,90,81,71,30.17,29.87,13,2,13,0.00
2013-11-1,69.4,65.2,59.0,64.2,61.0,57.3,95,86,79,29.87,29.65,24,7,24,0.20
2013-11-2,68.0,56.8,48.1,58.1,46.6,37.6,95,71,40,30.00,29.71,21,3,21,0.02
2013-11-3,61.2,49.9,41.1,41.0,37.3,34.3,84,64,42,30.37,29.99,17,2,17,0.00
2013-11-4,56.8,44.8,35.1,35.8,33.7,30.6,90,68,41,30.56,30.37,14,2,14,0.00
2013-11-5,55.7,45.4,33.8,48.3,39.1,29.2,93,79,64,30.59,30.46,12,2,12,0.00
2013-11-6,69.8,56.7,49.4,55.3,50.5,47.6,94,81,58,30.46,30.13,9,1,9,0.00
2013-11-7,70.4,53.7,42.3,58.9,45.5,32.6,96,76,45,30.16,29.97,20,3,20,0.00
2013-11-8,59.0,45.3,32.4,35.5,28.9,24.5,89,57,28,30.34,30.16,14,2,14,0.00
2013-11-9,57.2,44.3,30.5,35.6,31.3,25.6,89,62,38,30.40,30.22,20,3,20,0.00
2013-11-10,71.2,54.6,39.3,41.1,36.0,30.5,81,53,27,30.26,30.12,20,4,20,0.00
2013-11-11,62.1,48.1,32.1,33.3,29.6,24.9,77,50,31,30.36,30.15,12,1,12,0.00
2013-11-12,63.4,43.6,29.1,40.2,30.0,15.4,77,60,37,30.49,30.07,24,6,24,0.00
2013-11-13,49.7,35.3,23.5,20.7,18.0,15.7,73,51,30,30.58,30.47,13,1,13,0.00
2013-11-14,58.5,41.2,24.1,27.7,22.3,17.7,78,50,27,30.51,30.35,16,2,16,0.00
2013-11-15,58.7,46.9,33.6,45.8,33.3,21.8,93,61,37,30.36,30.22,7,1,7,0.07
2013-11-16,59.3,53.3,47.2,54.4,50.8,45.3,95,91,83,30.29,30.21,5,0,5,0.01
2013-11-17,63.5,58.3,53.8,60.6,56.3,51.9,96,93,84,30.23,29.89,9,1,9,0.27
2013-11-18,72.0,62.1,50.1,62.5,48.0,32.5,97,64,31,30.01,29.82,18,6,18,0.05
2013-11-19,55.1,46.6,37.6,33.4,28.7,25.9,65,50,37,30.30,30.00,14,2,14,0.00
2013-11-20,51.8,42.5,34.8,34.9,31.0,27.8,77,64,51,30.49,30.29,16,3,16,0.00
2013-11-21,54.6,47.7,41.8,44.9,39.7,31.7,81,74,65,30.52,30.41,10,2,10,0.00
2013-11-22,62.1,55.3,48.1,57.5,52.3,44.6,94,90,80,30.42,30.11,15,3,15,0.01
2013-11-23,59.7,53.8,40.9,56.8,43.3,23.1,96,70,40,30.23,30.07,20,5,20,0.00
2013-11-24,41.0,33.8,26.0,23.1,11.8,4.8,55,41,26,30.55,30.23,20,5,20,0.00
2013-11-25,40.0,31.3,19.9,20.3,13.1,6.2,74,48,35,30.60,30.39,9,1,9,0.00
2013-11-26,44.6,36.8,32.2,43.4,33.8,19.3,96,89,51,30.39,29.65,10,1,10,3.13
2013-11-27,44.7,38.0,27.4,43.6,31.1,16.8,100,77,54,30.22,29.56,26,6,26,0.18
2013-11-28,47.1,33.3,21.3,25.6,20.9,16.0,85,61,40,30.50,30.22,12,1,12,0.00
2013-11-29,52.4,37.5,24.9,29.1,25.2,21.1,92,64,37,30.65,30.49,12,1,12,0.00
2013-11-30,45.9,35.2,28.1,27.8,24.5,22.3,79,66,45,30.68,30.41,12,2,12,0.00
2013-12-1,58.8,41.0,27.1,39.1,31.2,23.3,87,70,46,30.41,30.05,10,1,10,0.00
2013-12-2,59.9,45.1,30.8,41.4,36.1,28.8,94,73,47,30.05,29.84,6,0,6,0.00
2013-12-3,59.0,51.1,42.5,51.8,46.2,36.5,93,83,73,29.98,29.88,13,2,13,0.04
2013-12-4,59.5,54.6,51.6,58.4,53.3,50.1,96,96,93,30.08,29.96,9,0,9,0.06
2013-12-5,66.2,62.7,59.5,65.0,61.4,58.4,97,96,92,30.10,29.99,18,4,18,0.16
2013-12-6,75.3,69.8,63.0,66.1,64.0,60.5,96,82,66,30.02,29.93,30,12,30,0.12
2013-12-7,62.9,53.0,43.2,60.7,47.2,36.3,95,81,69,30.43,29.96,20,7,20,0.30
2013-12-8,43.2,36.6,33.4,37.8,33.6,31.4,94,89,77,30.45,30.30,13,4,13,0.10
2013-12-9,43.6,39.0,33.6,42.4,37.8,32.1,96,95,94,30.30,30.07,7,1,7,0.42
2013-12-10,53.2,43.2,32.1,48.4,36.5,23.5,96,79,45,30.33,29.93,21,3,21,0.19
2013-12-11,50.6,37.3,24.8,30.4,25.5,20.3,87,64,42,30.47,30.32,15,2,15,0.00
2013-12-12,47.6,37.2,29.7,26.8,19.9,14.9,76,51,28,30.44,30.32,14,2,14,0.00
2013-12-13,50.9,37.6,23.2,31.6,22.2,15.0,82,55,33,30.40,30.28,15,2,15,0.00
2013-12-14,40.4,38.1,36.5,37.1,34.3,29.3,95,86,70,30.30,29.83,13,2,13,0.60
2013-12-15,50.4,41.5,32.9,42.4,34.5,26.8,95,78,51,30.12,29.76,15,4,15,0.01
2013-12-16,58.2,42.5,28.8,37.5,31.7,25.4,90,68,42,30.19,30.10,14,2,14,0.00
2013-12-17,61.5,48.3,35.6,39.7,34.2,26.3,81,60,39,30.14,29.90,26,6,26,0.00
2013-12-18,51.7,42.1,32.9,28.4,20.8,16.1,63,43,26,30.30,30.08,18,4,18,0.00
2013-12-19,63.7,45.3,29.4,30.7,25.6,19.3,73,48,26,30.34,30.22,20,3,20,0.00
2013-12-20,59.9,51.8,43.2,49.9,40.9,29.8,84,67,56,30.24,30.13,18,4,18,0.00
2013-12-21,66.9,59.8,52.0,62.2,55.2,47.9,91,85,77,30.15,29.98,16,3,16,0.00
2013-12-22,71.3,65.3,60.1,66.5,62.7,58.2,96,91,74,30.05,29.95,24,7,24,1.40
2013-12-23,63.5,57.2,43.4,62.0,53.9,35.6,95,89,72,30.19,28.94,14,2,14,0.47
2013-12-24,44.7,37.6,28.2,36.0,26.4,16.8,89,65,43,30.48,30.18,20,4,20,0.00
2013-12-25,41.2,29.6,20.3,17.5,15.0,12.4,79,56,33,30.59,30.42,10,1,10,0.00
2013-12-26,53.7,35.7,22.4,30.4,22.8,15.4,87,61,38,30.42,30.29,12,1,12,0.00
2013-12-27,53.0,39.1,27.6,29.9,24.5,22.0,85,59,34,30.51,30.39,10,1,10,0.00
2013-12-28,52.9,40.7,29.5,39.8,30.2,21.9,92,68,44,30.44,30.17,10,1,10,0.04
2013-12-29,58.2,46.5,40.4,51.3,42.3,38.8,99,86,63,30.16,29.78,17,4,17,0.95
2013-12-30,53.0,45.3,39.4,42.3,38.6,34.8,89,78,64,30.14,29.96,7,1,7,0.00
2013-12-31,50.9,42.2,34.7,37.1,27.5,20.4,88,59,34,30.39,30.12,22,3,22,0.00
2014-1-1,50.6,39.7,30.9,33.3,27.2,20.3,81,62,43,30.41,30.17,15,1,15,0.00
2014-1-2,45.2,39.4,32.4,43.5,35.3,20.0,94,86,59,30.17,29.68,29,3,29,0.34